Flag for France Weather past 2 weeks in Aix-en-Provence, France

Now
81 °F

Passing clouds.


Feels Like: 83 °F
Forecast: 65 / 79 °F
Wind: 13 mph from Southeast

Location: Marseille / Marignane

Current Time: Sep 19, 2014 at 6:24:17 PM

Latest Report: Sep 19, 2014 at 6:00 PM


Visibility: N/A

Pressure: 29.92 "Hg

Humidity: 62%

Dew point: 66 °F

Location of Aix-en-ProvenceLocation

Historic Weather in Aix-en-Provence — Graph

°F

Aix-en-Provence temperature yesterday

Maximum temperature yesterday: 86 °F (at 3:00 PM)
Minimum temperature yesterday: 68 °F (at 12:00 AM)
Average temperature yesterday: 76 °F

Past Weeks' High & Low Weather Summary

 TemperatureHumidityPressure
High86 °F (Sep 10, 4:00 PM)94% (Sep 8, 1:30 AM)30.04 "Hg (Sep 8, 1:30 AM)
Low57 °F (Sep 13, 7:30 AM)23% (Sep 11, 5:30 PM)29.77 "Hg (Sep 10, 6:00 PM)
Average74 °F65%29.90 "Hg
* Reported Sep 4 5:00 PM — Sep 19 5:30 PM, Aix-en-Provence, Weather by CustomWeather, © 2014

Note: Actual official high and low records may vary slightly from our data, if they occured in-between our weather recording intervals... More about our weather records

Advertising

Aix-en-Provence weather history for previous 24 hours

 ConditionsComfort  
Time TempWeatherWind HumidityBarometerVisibility
5:30 PM
Sep 19
82 °FPassing clouds.12 mph58%29.92 "HgN/A
5:00 PM84 °FPassing clouds.16 mph51%29.92 "HgN/A
4:30 PM84 °FScattered clouds.13 mph51%29.92 "HgN/A
4:00 PM84 °FScattered clouds.14 mph55%29.92 "HgN/A
3:30 PM84 °FScattered clouds.10 mph51%29.92 "HgN/A
3:00 PM82 °FScattered clouds.12 mph55%29.92 "HgN/A
2:30 PM82 °FScattered clouds.14 mph51%29.92 "HgN/A
2:00 PM82 °FScattered clouds.12 mph51%29.92 "HgN/A
1:30 PM81 °FScattered clouds.16 mph58%29.92 "HgN/A
1:00 PM79 °FScattered clouds.12 mph65%29.92 "HgN/A
12:30 PM75 °FScattered clouds.10 mph74%29.92 "HgN/A
12:00 PM73 °FBroken clouds.5 mph83%29.92 "HgN/A
11:30 AM72 °FBroken clouds.15 mph83%29.92 "HgN/A
11:00 AM72 °FLight rain. Broken clouds.14 mph83%29.92 "HgN/A
10:30 AM72 °FThunderstorms. Broken clouds.13 mph78%29.92 "HgN/A
10:00 AM72 °FThunderstorms. Broken clouds.13 mph83%29.92 "HgN/A
9:30 AM72 °FThunderstorms. Broken clouds.18 mph83%29.89 "Hg3 mi
9:00 AM75 °FThunderstorms. Broken clouds.14 mph69%29.92 "HgN/A
8:30 AM73 °FThunderstorms. Partly sunny.12 mph74%29.89 "HgN/A
8:00 AM75 °FThunderstorms. Passing clouds.7 mph65%29.89 "HgN/A
7:30 AM75 °FPassing clouds.15 mph65%29.86 "HgN/A
7:00 AM75 °FPassing clouds.12 mph65%29.86 "HgN/A
6:30 AM75 °FClear.10 mph65%29.89 "Hg10 mi
6:00 AM75 °FClear.14 mph65%29.89 "Hg10 mi
5:30 AM75 °FClear.13 mph65%29.89 "Hg10 mi
5:00 AM75 °FClear.15 mph65%29.89 "Hg10 mi
4:30 AM73 °FClear.13 mph69%29.86 "HgN/A
4:00 AM73 °FClear.13 mph69%29.89 "HgN/A
3:30 AM75 °FClear.13 mph65%29.89 "HgN/A
3:00 AM73 °FClear.8 mph69%29.89 "HgN/A
2:30 AM73 °FClear.6 mph69%29.89 "HgN/A
2:00 AM73 °FClear.9 mph69%29.92 "HgN/A
1:30 AM72 °FMild.7 mph73%29.92 "HgN/A
1:00 AM72 °FClear.8 mph73%29.92 "Hg10 mi
12:30 AM72 °FClear.9 mph73%29.92 "Hg10 mi
12:00 AM72 °FClear.7 mph73%29.92 "Hg10 mi
11:30 PM
Sep 18
72 °FClear.6 mph73%29.92 "Hg10 mi
11:00 PM73 °FClear.7 mph69%29.92 "Hg10 mi
10:30 PM73 °FClear.9 mph69%29.89 "Hg10 mi
10:00 PM75 °FClear.13 mph65%29.89 "Hg10 mi
9:30 PM75 °FClear.9 mph65%29.89 "Hg10 mi
9:00 PM75 °FClear.13 mph65%29.89 "Hg10 mi
8:30 PM77 °FSunny.13 mph61%29.86 "Hg10 mi
8:00 PM77 °FSunny.13 mph61%29.86 "Hg10 mi
7:30 PM79 °FPartly sunny.12 mph58%29.86 "HgN/A
7:00 PM79 °FPartly sunny.15 mph58%29.86 "HgN/A
6:30 PM81 °FPartly sunny.17 mph58%29.86 "HgN/A
6:00 PM81 °FPartly sunny.16 mph58%29.86 "HgN/A
Weather by CustomWeather, © 2014

See weather overviewHow to use our weather pages